Location: Holyhead Bay
(53.3667°N, 4.6667°W)
Time: 18:43:05
(UTC+00:00)

YAOGAN 1 - Pass Details

Date: 24 November 2020
Orbit: 618 x 620 km, 97.9° (Epoch: 16 January)

Event Time Altitude Azimuth Distance (km) Brightness Sun altitude
Exits shadow 18:21:23 24° 135° (SE) 1,312 3.9 -18.8°
Maximum altitude 18:23:48 52° 69° (ENE) 778 2.6 -19.2°
Drops below altitude 10° 18:28:02 10° 353° (N) 2,003 5.1 -19.8°
Sets 18:30:16 0° 349° (N) 2,914 6.1 -20.1°
